[[{"header":{"parameterUnit":"m.s-1","parameterCategory":1,"la1":30.2991,"la2":30.254,"lo1":-89.0895,"lo2":-89.0444,"dy":0.0017,"dx":0.0017,"nx":28,"ny":28,"refTime":"2023-11-15T03:00:00:Z","depth":0,"parameterNumber":2,"parameterNumberName":"U-component_of_WINDS"},"data":[0,0,0,0,0,0,0,0,0,0,0,0,0,0,0,0,0,0,0,0,0,0,0,0,0,0,0,0,0,0,0,0,0,0,0,0,0,0,0,0,0,0,0,0,0,0,0,0,0,0,0,0,0,0,0,0,0,0,-2.0692,-2.0695,0,-2.0942,-2.0945,-2.0948,-2.1036,-2.1035,-2.1034,-2.1033,-2.1296,-2.1304,-2.1312,0,0,0,0,0,0,0,0,0,0,0,0,0,-2.0296,-2.0303,-2.0692,-2.0695,-2.0698,-2.0942,-2.0945,-2.0949,-2.1036,-2.1035,-2.1034,-2.1033,-2.1293,-2.1303,-2.1312,0,0,0,0,0,0,0,0,0,0,0,0,0,-2.0499,-2.0305,-2.0691,-2.0771,-2.0781,-2.0941,-2.0946,-2.095,-2.1036,-2.1035,-2.1033,-2.1032,-2.129,-2.1302,-2.1314,-2.1415,0,0,-2.135,-2.1355,0,0,0,0,0,0,0,0,-2.0488,-2.0514,-2.0756,-2.0766,-2.0777,-2.0956,-2.0902,-2.1106,-2.1037,-2.0939,-2.1033,-2.1031,-2.1185,-2.1205,-2.1255,-2.1428,-2.1439,-2.1351,-2.1358,-2.1363,-2.1366,0,0,0,0,0,0,0,-2.0474,-2.0504,-2.0791,-2.076,-2.0772,-2.0796,-2.0824,-2.0941,-2.1067,-2.0948,-2.0955,-2.0983,-2.119,-2.1244,-2.1262,-2.1443,-2.135,-2.1361,-2.1368,-2.1373,-2.1714,-2.1715,0,0,0,0,0,0,-2.0445,-2.0491,-2.0783,-2.0799,-2.0626,-2.0805,-2.0835,-2.09,-2.1066,-2.109,-2.0984,-2.0986,-2.1224,-2.1248,-2.1272,-2.1403,-2.1363,-2.1374,-2.1381,-2.1712,-2.1714,-2.1716,0,0,0,0,0,0,-2.0436,-2.047,-2.0773,-2.0647,-2.0687,-2.0813,-2.0885,-2.0906,-2.096,-2.1093,-2.1117,-2.1015,-2.1224,-2.1255,-2.1379,-2.1414,-2.1379,-2.139,-2.1709,-2.1712,-2.1715,-2.1666,0,0,0,0,0,0,-2.0425,-2.0467,-2.0505,-2.0647,-2.0694,-2.0874,-2.0887,-2.0912,-2.0979,-2.0984,-2.1129,-2.1152,-2.1225,-2.1361,-2.1391,-2.1429,-2.1399,-2.1707,-2.1711,-2.1714,-2.1665,-2.1667,-2.1668,0,0,0,0,0,-2.041,-2.0483,-2.0507,-2.0541,-2.0744,-2.0876,-2.0903,-2.0984,-2.0981,-2.1022,-2.1108,-2.1147,-2.1404,-2.1373,-2.1407,-2.145,-2.1705,-2.171,-2.1714,-2.1664,-2.1666,-2.1668,0,0,0,0,0,0,-2.0344,-2.0503,-2.0531,-2.0651,-2.0749,-2.089,-2.0944,-2.0984,-2.1086,-2.1087,-2.1186,-2.1218,-2.1334,-2.1405,-2.1366,-2.1558,-2.1557,-2.1569,-2.1508,-2.1511,-2.1512,-2.1494,-2.1409,0,0,0,0,0,-2.0342,-2.0434,-2.0569,-2.0662,-2.0709,-2.0818,-2.0878,-2.0932,-2.1039,-2.1081,-2.1176,-2.128,-2.1385,-2.1452,-2.1555,-2.1675,-2.1709,-2.1722,-2.1723,-2.1724,-2.1733,-2.1804,-2.1811,-2.173,-2.173,-2.173,0,0,-2.0342,-2.044,-2.0492,-2.0651,-2.0733,-2.0828,-2.0852,-2.0951,-2.1024,-2.1097,-2.122,-2.1293,-2.1415,-2.1538,-2.1597,-2.16,-2.1763,-2.1729,-2.1729,-2.1738,-2.1809,-2.1816,-2.1823,-2.1733,-2.1733,-2.1732,0,0,-2.0389,-2.0472,-2.0559,-2.064,-2.0764,-2.0836,-2.0856,-2.0992,-2.1043,-2.1166,-2.1224,-2.1312,-2.149,-2.1575,-2.1641,-2.1721,-2.1761,-2.1752,-2.1761,-2.1829,-2.1835,-2.1841,-2.1871,-2.188,-2.1761,-2.176,-2.176,0,-2.0374,-2.0517,-2.0599,-2.0695,-2.0764,-2.0833,-2.0923,-2.0999,-2.115,-2.1198,-2.1198,-2.1423,-2.151,-2.1654,-2.1673,-2.1724,-2.1753,-2.1737,-2.1827,-2.1834,-2.1841,-2.1871,-2.1882,-2.1759,-2.1759,-2.1759,-2.1759,0,-2.0492,-2.059,-2.0646,-2.0788,-2.0864,-2.0956,-2.1055,-2.1121,-2.1169,-2.1241,-2.1367,-2.1474,-2.1601,-2.1639,-2.1687,-2.1791,-2.1789,-2.1807,-2.1809,-2.1845,-2.1875,-2.1887,-2.1756,-2.1757,-2.1757,-2.1758,0,0,-2.0505,-2.0691,-2.0711,-2.0777,-2.0918,-2.0997,-2.1093,-2.1215,-2.1271,-2.1373,-2.1458,-2.1606,-2.1624,-2.1699,-2.1758,-2.1817,-2.1875,-2.1828,-2.1833,-2.1834,-2.1998,-2.1984,-2.1995,-2.1902,-2.1904,-2.1906,-2.1988,0,-2.0572,-2.0745,-2.0822,-2.0961,-2.1054,-2.1121,-2.1205,-2.1302,-2.1372,-2.1463,-2.1542,-2.1646,-2.166,-2.1707,-2.1768,-2.1854,-2.1909,-2.185,-2.1984,-2.1988,-2.1952,-2.2011,-2.1997,-2.2068,-2.2,-2.2002,-2.2003,0,-2.0673,-2.0774,-2.0921,-2.1052,-2.1094,-2.1168,-2.1286,-2.1371,-2.1483,-2.1531,-2.1614,-2.167,-2.1776,-2.1769,-2.1919,-2.1876,-2.1936,-2.1987,-2.1992,-2.2009,-2.1998,-2.2031,-2.2093,-2.2104,-2.2022,-2.2021,-2.2019,0,-2.067,-2.0842,-2.0953,-2.1007,-2.1162,-2.1212,-2.128,-2.139,-2.1458,-2.1563,-2.1609,-2.1724,-2.1788,-2.1878,-2.1964,-2.1951,-2.2106,-2.2106,-2.215,-2.2148,-2.2181,-2.2178,-2.2255,-2.2217,-2.2217,-2.2217,-2.2216,0,-2.0737,-2.0825,-2.0953,-2.1021,-2.1123,-2.1211,-2.131,-2.1382,-2.148,-2.1566,-2.1631,-2.171,-2.1819,-2.1913,-2.1981,-2.2096,-2.2124,-2.2167,-2.2184,-2.2162,-2.2156,-2.2203,-2.2201,-2.222,-2.2219,-2.2218,-2.2218,0,-2.075,-2.0839,-2.0965,-2.11,-2.1136,-2.1205,-2.1323,-2.1393,-2.1466,-2.1573,-2.1604,-2.1719,-2.1833,-2.1927,-2.2078,-2.2124,-2.2243,-2.2263,-2.2204,-2.2214,-2.2254,-2.2249,-2.2365,-2.2385,-2.2331,-2.2331,-2.2332,0,-2.0788,-2.0857,-2.0999,-2.106,-2.1125,-2.1223,-2.1292,-2.1383,-2.1453,-2.1586,-2.1641,-2.1759,-2.1858,-2.2037,-2.2136,-2.2252,-2.2276,-2.2309,-2.2294,-2.2269,-2.2278,-2.2273,-2.2282,-2.231,-2.231,-2.231,-2.231,0,-2.0845,-2.0886,-2.0982,-2.1095,-2.1176,-2.1269,-2.1365,-2.1411,-2.152,-2.1596,-2.1712,-2.1789,-2.1941,-2.2058,-2.2184,-2.2257,-2.2303,-2.2314,-2.2331,-2.2309,-2.2272,-2.2294,-2.2209,-2.2311,-2.2311,-2.2311,-2.2311,-2.2311,-2.0873,-2.0938,-2.1048,-2.1154,-2.1235,-2.1322,-2.1395,-2.1476,-2.1574,-2.1703,-2.1751,-2.187,-2.1983,-2.2156,-2.2229,-2.2325,-2.2331,-2.2355,-2.2361,-2.2366,-2.2363,-2.2255,-2.2349,-2.2349,-2.2349,-2.2349,-2.2349,0,-2.0935,-2.1009,-2.1105,-2.1235,-2.1319,-2.1352,-2.146,-2.1529,-2.1632,-2.1731,-2.1827,-2.1961,-2.2075,-2.2183,-2.2303,-2.2359,-2.2383,-2.2388,-2.2385,-2.2402,-2.2351,-2.2325,-2.2366,-2.2366,-2.2366,-2.2366,-2.2366,-2.2366,-2.0977,-2.1088,-2.1142,-2.1295,-2.1369,-2.1484,-2.1543,-2.1625,-2.1705,-2.1851,-2.1945,-2.2014,-2.2118,-2.2246,-2.2353,-2.2382,-2.2424,-2.2423,-2.2457,-2.2408,-2.2405,-2.2402,-2.2379,-2.2431,-2.2431,-2.2501,-2.2501,-2.2502]},{"header":{"parameterUnit":"m.s-1","parameterCategory":1,"la1":30.2991,"la2":30.254,"lo1":-89.0895,"lo2":-89.0444,"dy":0.0017,"dx":0.0017,"nx":28,"ny":28,"refTime":"2023-11-15T03:00:00:Z","depth":0,"parameterNumber":3,"parameterNumberName":"V-component_of_WINDS"},"data":[0,0,0,0,0,0,0,0,0,0,0,0,0,0,0,0,0,0,0,0,0,0,0,0,0,0,0,0,0,0,0,0,0,0,0,0,0,0,0,0,0,0,0,0,0,0,0,0,0,0,0,0,0,0,0,0,0,0,-8.4866,-8.4868,0,-8.5064,-8.5066,-8.5068,-8.4969,-8.4964,-8.4959,-8.4954,-8.5153,-8.5163,-8.5173,0,0,0,0,0,0,0,0,0,0,0,0,0,-8.4401,-8.441,-8.4866,-8.4869,-8.4871,-8.5063,-8.5066,-8.5069,-8.497,-8.4964,-8.4957,-8.4952,-8.515,-8.5162,-8.5174,0,0,0,0,0,0,0,0,0,0,0,0,0,-8.4602,-8.4413,-8.4866,-8.4845,-8.4845,-8.5063,-8.5066,-8.5069,-8.4971,-8.4964,-8.4956,-8.4949,-8.5146,-8.5161,-8.5176,-8.5424,0,0,-8.5222,-8.5229,0,0,0,0,0,0,0,0,-8.459,-8.4619,-8.4846,-8.4847,-8.4847,-8.4984,-8.4975,-8.5188,-8.4973,-8.4923,-8.4954,-8.4945,-8.5103,-8.5121,-8.5175,-8.5433,-8.5442,-8.5223,-8.5233,-8.5239,-8.5243,0,0,0,0,0,0,0,-8.4577,-8.461,-8.4944,-8.4849,-8.485,-8.4825,-8.4845,-8.5015,-8.5054,-8.4927,-8.492,-8.4945,-8.5102,-8.5161,-8.5179,-8.5445,-8.5223,-8.5236,-8.5246,-8.5252,-8.5919,-8.5927,0,0,0,0,0,0,-8.4564,-8.4599,-8.4938,-8.495,-8.4697,-8.484,-8.4862,-8.4948,-8.5052,-8.506,-8.4952,-8.494,-8.5139,-8.5161,-8.5186,-8.5486,-8.5239,-8.5253,-8.5262,-8.5911,-8.5921,-8.593,0,0,0,0,0,0,-8.4554,-8.4595,-8.493,-8.4773,-8.4813,-8.4856,-8.4953,-8.4956,-8.5015,-8.5071,-8.5077,-8.5005,-8.5133,-8.5164,-8.5366,-8.5491,-8.526,-8.5274,-8.59,-8.5914,-8.5926,-8.6086,0,0,0,0,0,0,-8.4541,-8.4592,-8.4688,-8.4776,-8.4822,-8.5108,-8.4961,-8.4965,-8.5041,-8.5028,-8.5122,-8.513,-8.513,-8.5344,-8.5381,-8.5508,-8.5286,-8.5889,-8.5906,-8.5922,-8.607,-8.6103,-8.6131,0,0,0,0,0,-8.4525,-8.4724,-8.4693,-8.4734,-8.4942,-8.5116,-8.5142,-8.5139,-8.5052,-8.5148,-8.5184,-8.5127,-8.5471,-8.5366,-8.5407,-8.5539,-8.5882,-8.5902,-8.592,-8.6056,-8.6096,-8.613,0,0,0,0,0,0,-8.4647,-8.4735,-8.4702,-8.4934,-8.5019,-8.5099,-8.522,-8.5181,-8.529,-8.5273,-8.5263,-8.5285,-8.5495,-8.5537,-8.5418,-8.5786,-8.5663,-8.5691,-8.5752,-8.5791,-8.5821,-8.5807,-8.5298,0,0,0,0,0,-8.4702,-8.4836,-8.4904,-8.5103,-8.5147,-8.5177,-8.5252,-8.5242,-8.5328,-8.5363,-8.5414,-8.5499,-8.5626,-8.571,-8.583,-8.6075,-8.6095,-8.6186,-8.6217,-8.6242,-8.6267,-8.6402,-8.6444,-8.5994,-8.5994,-8.5994,0,0,-8.4815,-8.4879,-8.4964,-8.513,-8.5194,-8.5333,-8.5207,-8.5359,-8.5462,-8.5385,-8.5581,-8.5621,-8.5715,-8.5941,-8.6042,-8.5982,-8.6396,-8.6266,-8.6286,-8.6298,-8.6426,-8.6469,-8.6506,-8.6007,-8.6005,-8.6003,0,0,-8.5092,-8.5154,-8.5328,-8.5395,-8.5494,-8.5513,-8.5555,-8.5641,-8.5666,-8.5862,-8.5808,-8.5929,-8.6148,-8.6219,-8.6283,-8.659,-8.6542,-8.6629,-8.679,-8.6921,-8.6956,-8.6988,-8.7099,-8.7139,-8.6653,-8.6654,-8.6654,0,-8.522,-8.5429,-8.5421,-8.5579,-8.5654,-8.5593,-8.5769,-8.5834,-8.5967,-8.602,-8.595,-8.6226,-8.6285,-8.6527,-8.6602,-8.6655,-8.6703,-8.6619,-8.6952,-8.6983,-8.7013,-8.7119,-8.7161,-8.6664,-8.6663,-8.6662,-8.6661,0,-8.5582,-8.5728,-8.5856,-8.5989,-8.6078,-8.6244,-8.6261,-8.6352,-8.6335,-8.6361,-8.6561,-8.663,-8.6764,-8.682,-8.6804,-8.7061,-8.7021,-8.6952,-8.6828,-8.7066,-8.7166,-8.7206,-8.6678,-8.6675,-8.6672,-8.6669,0,0,-8.5943,-8.607,-8.6118,-8.6178,-8.6284,-8.6396,-8.6559,-8.6692,-8.6771,-8.6865,-8.7002,-8.719,-8.7128,-8.7201,-8.7192,-8.7307,-8.7549,-8.7224,-8.7226,-8.7284,-8.7839,-8.7892,-8.7939,-8.7517,-8.7525,-8.7531,-8.7831,0,-8.6229,-8.6517,-8.6517,-8.6782,-8.6918,-8.6862,-8.7004,-8.7084,-8.7113,-8.7232,-8.7262,-8.7397,-8.7303,-8.7347,-8.7459,-8.7496,-8.766,-8.7474,-8.7646,-8.7652,-8.7626,-8.799,-8.8046,-8.8327,-8.787,-8.7877,-8.7881,0,-8.6603,-8.6712,-8.6992,-8.708,-8.7137,-8.7265,-8.7388,-8.7502,-8.7592,-8.7604,-8.7688,-8.7661,-8.7827,-8.7698,-8.7927,-8.7801,-8.7871,-8.79,-8.791,-8.7928,-8.7783,-8.802,-8.8416,-8.8459,-8.7942,-8.7937,-8.7933,0,-8.6841,-8.7057,-8.7253,-8.7306,-8.7413,-8.7505,-8.7554,-8.7636,-8.7717,-8.7823,-8.7876,-8.8,-8.8068,-8.8165,-8.8173,-8.8077,-8.8405,-8.8275,-8.8421,-8.8422,-8.8494,-8.849,-8.891,-8.8536,-8.8535,-8.8535,-8.8534,0,-8.7163,-8.7337,-8.7362,-8.7483,-8.7677,-8.7674,-8.7865,-8.7905,-8.798,-8.8107,-8.8065,-8.8185,-8.8188,-8.8311,-8.8317,-8.8508,-8.8538,-8.8554,-8.8554,-8.856,-8.8558,-8.8607,-8.8588,-8.8546,-8.8543,-8.8541,-8.8539,0,-8.7462,-8.7486,-8.7696,-8.7781,-8.7807,-8.7946,-8.8019,-8.8134,-8.8159,-8.8321,-8.8359,-8.8398,-8.8541,-8.8558,-8.8724,-8.8729,-8.8959,-8.8937,-8.893,-8.8927,-8.9074,-8.9061,-8.9541,-8.9605,-8.9187,-8.9191,-8.9195,0,-8.7667,-8.78,-8.79,-8.7984,-8.8039,-8.8173,-8.8256,-8.8257,-8.8345,-8.8459,-8.8561,-8.87,-8.8812,-8.9043,-8.9086,-8.9213,-8.9195,-8.9355,-8.9214,-8.9216,-8.9201,-8.9194,-8.9208,-8.9383,-8.9387,-8.9391,-8.9394,0,-8.8029,-8.8035,-8.8157,-8.8284,-8.8385,-8.8484,-8.8577,-8.8648,-8.8661,-8.8762,-8.8909,-8.8996,-8.9167,-8.9306,-8.9432,-8.9481,-8.9442,-8.9438,-8.9479,-8.9487,-8.9478,-8.9488,-8.9007,-8.9427,-8.9424,-8.9422,-8.942,-8.9418,-8.829,-8.8406,-8.8496,-8.8634,-8.8705,-8.8794,-8.8907,-8.8947,-8.907,-8.9211,-8.9204,-8.9366,-8.9454,-8.9619,-8.9678,-8.9804,-8.9752,-8.981,-8.9826,-8.9841,-8.9857,-8.9457,-8.9827,-8.9826,-8.9825,-8.9824,-8.9823,0,-8.8652,-8.8707,-8.8834,-8.8968,-8.9076,-8.903,-8.9131,-8.9225,-8.9369,-8.9455,-8.9567,-8.9736,-8.9871,-8.9926,-9.0058,-9.0149,-9.0135,-9.0184,-9.0179,-9.0191,-8.9895,-8.9848,-9.0194,-9.0194,-9.0194,-9.0194,-9.0194,-9.0194,-8.8854,-8.905,-8.9067,-8.9298,-8.9351,-8.9512,-8.9574,-8.9656,-8.9725,-8.9917,-9.003,-9.0065,-9.0138,-9.0276,-9.0398,-9.0411,-9.0462,-9.0521,-9.0526,-9.0249,-9.0212,-9.0176,-9.0132,-9.0532,-9.0532,-9.0811,-9.0814,-9.0816]}]]